COSMOS 1823 DEB

Satellite information

Favourite Embed

Satellite Type and Status

DEBRISIN ORBIT

Key statistics

Satellite COSMOS 1823 DEB at a glance.

Uptime

13955

Days in orbit

Revolutions

≈ 12.4

Per day

Orbit

LEO

Low Earth Orbit

Inclination

73.8

Latest

Satellite identification and parameters

Extended collection of information and parameters for COSMOS 1823 DEB.

Object identification

Identified? True

Debris? True

Object name: COSMOS 1823 DEB

International designator: 1987-020C

Object number (NORAD): 18725

Object ID (CCSDS): 18725

Country: COMMONWEALTH OF INDEPENDENT STATES (CIS)

Current information (Y/N): Y

RCS size: MEDIUM

Orbital parameters

Period: 116.26 minutes

Inclination: 73.7633 deg

SMA: 7890.671 km

Apoapsis: 1569.467 km

Periapsis: 1455.605 km

RAAN: 171.9561 deg

Eccentricy: 0.007215

Argument of periapsis: 20.3717 deg

Mean anomaly: 153.2501 deg

Mean motion: 12.38602246 rev/day

Mean motion (dot): -0.00000109 rev/day2

B* drag term: -0.00069974 1/REarth

Two-line elements (TLE)

Creation date: May 5, 2025, 10:26 p.m.

Reference frame: TEME

Reference center: EARTH

Epoch: May 5, 2025, 9:31 p.m. UTC

TLE line 0: 0 COSMOS 1823 DEB

TLE line 1: 1 18725U 87020C 25125.89714282 -.00000109 00000-0 -69974-3 0 9996

TLE line 2: 2 18725 73.7633 171.9561 0072150 20.3717 153.2501 12.38602246689205

Live tracking on map

Real-time ground track for satellite COSMOS 1823 DEB.

In-orbit conjunctions

A list of the most updated potential collisions computed for object COSMOS 1823 DEB.

Target Orbit TCA Probability of collision Miss distance Type
DELTA 1 DEB MEO 2024-08-23 14:57:27 0.0001417281 113.0 (m) DEBRIS

Associated space launch

A satellite for the GEO-IK geodetic system

COSMOS 1823 DEB was lifted into orbit during the mission ‘Tsiklon-3 | Geo-IK 9’, on board a Tsiklon-3 space rocket.

The launch took place on Feb. 20, 1987, 4:43 a.m. from 32/2.

For more information about the launch, click the button.

Launch to space Tsiklon-3 | Geo-IK 9
Tsiklon-3 | Geo-IK 9

Agency: N/A

Status: Launch Successful

Launch date: Feb. 20, 1987, 4:43 a.m. UTC

Rocket: Tsiklon-3

Launch pad: 32/2

Location: Plesetsk Cosmodrome, Russian Federation

...

Latest news about this satellite

There are no fresh news available about this satellite. Check back as we update our databases every day.


Newsletter sign-up

Weekly statistics, charts and insights to help you stay on top of the space industry.